Regional Weather Roundup
Issued by NWS Albany, NY

Home | Current Version | Previous Version | Graphics & Text | Print | Product List | Glossary Off
Versions: 1 2 3 4 5 6 7 8 9 10 11 12 13 14 15 16 17 18 19 20 21 22 23 24 25 26 27 28 29 30 31 32 33 34 35 36 37 38 39 40 41 42 43

000
ASUS41 KALY 271110
RWRALY

NEW YORK STATE HOURLY WEATHER ROUNDUP
NATIONAL WEATHER SERVICE ALBANY NY
600 AM EST SAT DEC 27 2014

NOTE: "FAIR" INDICATES FEW OR NO CLOUDS BELOW 12,000 FEET WITH NO
SIGNIFICANT WEATHER AND/OR NO OBSTRUCTIONS TO VISIBILITY.

NYZ032-033-038>043-046>054-057>066-NYZ062>081-271200-
EAST


CITY           SKY/WX    TMP DP  RH WIND       PRES   REMARKS
ALBANY         CLOUDY    30  27  88 S3        30.20R
GLENS FALLS    CLOUDY    31  28  89 CALM      30.17S
POUGHKEEPSIE   PTCLDY    30  26  85 CALM      30.21R
NEWBURGH       MOCLDY    36  30  80 W12       30.21R WCI  27
MONTGOMERY     PTCLDY    32  28  85 SW6       30.20R WCI  26
WHITE PLAINS   PTCLDY    36  29  75 W5        30.20R WCI  32
ISLIP          MOCLDY    33  28  81 CALM      30.20R
NEW YORK CITY  MOCLDY    45  31  58 W5        30.22R
CENTRAL PARK   PTCLDY    45  29  53 W8        30.24R
$$

NYZ005>009-017-018-044>046-055-056-271200-
CENTRAL


CITY           SKY/WX    TMP DP  RH WIND       PRES   REMARKS
FULTON         CLOUDY    37  30  75 CALM      30.17S
SYRACUSE       CLOUDY    34  31  88 CALM      30.17S
ROME           CLOUDY    32  31  96 CALM      30.20R
ELMIRA         CLOUDY    29  27  92 CALM      30.19R
BINGHAMTON     CLOUDY    36  29  75 SW6       30.17R WCI  31
MONTICELLO     MOCLDY    28  27  93 SW3       30.20R
$$

NYZ026>034-041>043-271200-
NORTH


CITY           SKY/WX    TMP DP  RH WIND       PRES   REMARKS
WATERTOWN      CLOUDY    41  33  73 SW3       30.16S
FORT DRUM      NOT AVBL
MASSENA        CLOUDY    37  32  82 SW5       30.16R WCI  33
SARANAC LAKE   CLOUDY    35  30  82 SW6       30.09R WCI  30
PLATTSBURGH    CLOUDY    36  31  82 CALM      30.14R
$$

NYZ001>004-010>016-019>021-271200-
WEST


CITY           SKY/WX    TMP DP  RH WIND       PRES   REMARKS
NIAGARA FALLS  CLOUDY    41  36  82 SW5       30.13S
BUFFALO        CLOUDY    44  34  67 SW8       30.14S
DUNKIRK        CLOUDY    44  34  67 S9        30.15S
JAMESTOWN      CLOUDY    37  30  75 S6        30.15S WCI  33
WELLSVILLE     CLOUDY    36  30  79 W6        30.15F WCI  31
ROCHESTER      CLOUDY    40  33  76 CALM      30.15S
PENN YAN       CLOUDY    39  33  79 SW7       30.17R WCI  34
$$

             KEY
       WCI = WIND CHILL INDEX
       VSB = VISIBILITY
       HX  = HEAT INDEX
$$


USA.gov is the U.S. government's official web portal to all federal, state and local government web resources and services.